{"data":{"norad_id":55313,"intl_designator":"2023-010AW","name":"STARLINK-5313","alt_names":[],"object_type":"PAYLOAD","status":"ACTIVE","operator":null,"country":"US","launch_date":"2023-01-19","launch_site_code":"AFWTR","launch_vehicle":null,"mission":null,"orbit_class":"UNKNOWN","rcs_meters":null,"size_class":null,"mass_kg":null,"dimensions":null,"purposes":["comms"],"wikipedia_slug":null,"has_3d_model":false,"image_url":null,"decayed_at":null,"tle_current":{"epoch":"2026-09-20T22:00:03.000096Z","epoch_age_seconds":60617,"freshness":"FRESH","line1":"1 55313U 23010AW  26263.91670139  .00052060  00000+0  33822-2 0  9990","line2":"2 55313  70.0003 232.1435 0003465 228.4412 265.5716 15.07740832  5778","mean_motion":15.07740832,"eccentricity":0.0003465,"inclination_deg":70.0003,"raan_deg":232.1435,"arg_perigee_deg":228.4412,"mean_anomaly_deg":265.5716,"bstar":0.0033822,"rev_number":577,"period_min":95.507130233374,"perigee_km":540.70693631636,"apogee_km":545.50335712404,"semimajor_km":6921.2421467202,"source":"CELESTRAK","updated_at":"2026-09-21T09:00:33.174995Z"}}}